www.pogodaiklimat.ru

Погода и климат >> Архив погоды >> Россия >> Оренбургская область >> Кувандык


ПОГОДА в Кувандыке

  • Прогноз погоды в Кувандыке
  • Монитор погоды в Кувандыке

АРХИВ ПОГОДЫ в Кувандыке

Время (UTC), дата Ветер
(напр.,м/с)
 
Видим.   Явления Облачность Т
(С)
Тd
(С)
f
(%)
Тe
(С)
Тes
(С)
Комфортность P
(гПа)
Po
(гПа)
Тmin
(С)
Tmax
(С)
R
(мм)
R24
(мм)
S
(см)
09 9.07 З 2 50 км 3/3 1000 м
[Cu hum]
+31.5 +6.9 22 +30 +42 жарко 1007.2 983.1
12 9.07 Ю 2 50 км 3/3 1000 м
[Cu hum]
+32.2 +5.4 19 +30 +36 жарко 1006.0 982.0
15 9.07 Ю 1 50 км 4/3 600 м
[Cb calv Ci fib]
+31.3 +8.5 24 +30 +31 жарко 1005.7 981.6 +33.3
18 9.07 ЮВ 2 20 км 4/0
[Ac As Ci fib]
+23.1 +9.3 41 +25 +25 комфорт 1007.0 982.2
21 9.07 штиль 0 20 км ясно +16.0 +10.0 68 +16 +16 1007.0 981.7
00 10.07 ЮВ 2 50 км 6/0
[Ci fib]
+20.8 +9.2 47 +23 +23 комфорт 1006.0 981.1
03 10.07 Ю 3 50 км 9/3 1000 м
[Sc Ac As Ci fib]
+25.7 +8.4 33 +26 +27 жарко 1005.0 980.5 +13.5
06 10.07 СЗ 2 50 км 10/8 750 м
[Cb cap Ac und]
+23.7 +9.5 41 +25 +26 комфорт 1006.5 981.8
09 10.07 ЮЗ 2 50 км {ливн. осадки} 9/6 600 м
[Cb cap Ac As Ci fib]
+24.9 +14.5 52 +27 +32 жарко 1004.7 980.2
12 10.07 З 2 50 км {ливн. осадки} 9/0
[Ac As Ci fib]
+30.3 +12.2 33 +31 +36 жарко 1003.2 979.2
15 10.07 Ю 1 50 км 10/3 600 м
[Cb calv Ac As Cs]
+27.6 +15.2 47 +30 +31 жарко 1002.6 978.4 +30.7 0.0
18 10.07 СЗ 1 50 км в посл. час ливневой дождь 10/8 750 м
[Cb cap Ac und]
+21.2 +16.6 75 +25 +25 комфорт 1005.2 980.4
21 10.07 Ю 3 20 км в посл. час ливневой дождь 10/6 800 м
[Cb cap Ac und]
+19.5 +17.4 88 +22 +22 комфорт 1005.0 980.1
00 11.07 штиль 0 50 км {ливн. осадки} 8/3 600 м
[Cb calv Ac As Ci fib]
+16.3 +16.1 99 +16 +16 1006.1 980.9
03 11.07 штиль 0 50 км {ливн. осадки} 4/3 600 м
[Cb calv Ac As]
+22.1 +18.1 78 +27 +30 душно 1006.7 981.9 +15.1 0.4
06 11.07 З 2 50 км {ливн. осадки} 4/0
[Ac trans Ci fib]
+27.2 +11.0 36 +28 +40 жарко 1006.9 982.5
09 11.07 СЗ 4 50 км 8/1 1000 м
[Cu med, cong Ci]
+29.6 +7.8 25 +29 +37 жарко 1006.9 982.7
12 11.07 З 3 50 км 4/1 1000 м
[Cu med, cong Ci]
+29.5 +7.0 24 +28 +34 жарко 1007.4 983.1
15 11.07 С 4 50 км 3/0
[Ci]
+27.6 +8.2 29 +27 +28 жарко 1008.1 983.7 +29.9
18 11.07 Ю 1 20 км 3/0
[Ci fib]
+17.0 +11.0 68 +18 +18 1009.6 984.2
21 11.07 штиль 0 20 км ясно +12.8 +10.0 83 +12 +12 1010.5 984.8
00 12.07 Ю 1 50 км ясно +10.8 +10.0 95 +10 +10 1010.5 984.6
03 12.07 ЮЗ 1 50 км 3/0
[Ci]
+22.7 +11.6 49 +25 +29 комфорт 1009.1 984.3 +10.5
06 12.07 В 3 50 км 8/0
[Cs]
+30.9 +12.0 31 +31 +41 жарко 1007.5 983.4
09 12.07 ЮВ 2 50 км 4/3 1000 м
[Cu med, cong Ci fib]
+35.1 +8.9 20 +34 +45 очень
жарко
1005.2 981.5
12 12.07 Ю 3
{14}
50 км 5/3 1000 м
[Cu med, cong Ci fib]
+37.6 +5.1 14 +35 +39 очень
жарко
1003.2 979.7
15 12.07 штиль 0 50 км 5/4 1000 м
[Sc diur, vesp Ci fib]
+33.6 +11.8 27 +34 +34 очень
жарко
1002.0 978.2 +38.2
18 12.07 В 6-11
{12}
20 км 6/3 1000 м
[Sc Ac As]
+32.8 +2.8 15 +30 +30 жарко 1001.5 977.6
21 12.07 ЮВ 4
{13}
20 км 9/0
[Cs]
+30.0 +3.4 18 +28 +28 жарко 1001.1 977.0
00 13.07 ЮЗ 1 50 км 4/0
[Ci fib]
+19.8 +7.9 46 +22 +22 комфорт 1002.4 977.5
03 13.07 ЮВ 3 50 км 6/3 1000 м
[Sc Ac trans Ci fib]
+26.5 +10.0 35 +27 +29 жарко 1002.9 978.5 +17.3
06 13.07 З 1 50 км 9/3 1000 м
[Sc Ac As Cs]
+32.5 +10.3 26 +32 +38 жарко 1002.9 979.0
09 13.07 Ю 5
{12}
50 км 9/3 600 м
[Cb calv Ac trans Cs]
+37.1 +4.6 13 +34 +37 очень
жарко
1001.8 978.3
12 13.07 ЮВ 2
{16}
50 км 9/4 600 м
[Cb calv Ac As Cs]
+36.8 +7.6 17 +35 +38 очень
жарко
1001.1 977.6
15 13.07 З 4 50 км 9/4 600 м
[Cb calv Ac As Ci fib]
+33.4 +12.2 28 +34 +34 очень
жарко
1001.5 977.7 +38.8
18 13.07 ЮВ 2 20 км 9/4 600 м
[Cb calv Ac As Ci fib]
+24.7 +14.6 53 +27 +27 жарко 1004.6 980.1
21 13.07 В 1 20 км 9/4 600 м
[Cb calv Ac As Ci fib]
+20.9 +14.1 65 +25 +25 комфорт 1004.1 979.3
00 14.07 штиль 0 50 км 9/3 600 м
[Cb calv Ac As Ci fib]
+18.2 +14.4 78 +18 +18 1005.0 979.9
03 14.07 С 1 50 км 9/3 600 м
[Cb calv Ac As Ci fib]
+25.0 +15.3 55 +28 +30 жарко 1004.7 980.3 +16.5
06 14.07 З 1 50 км 9/3 600 м
[Cb cap Ac As Ci fib]
+30.6 +16.5 43 +34 +40 очень
душно
1004.3 980.3
09 14.07 З 2 50 км 10/6 600 м
[Cb calv Ac As Ci fib]
+30.8 +18.4 48 +36 +39 очень
душно
1004.1 980.1
12 14.07 СЗ 2 50 км 8/3 600 м
[Cb cap Ac As Ci fib]
+30.6 +19.4 51 +36 +40 очень
душно
1003.4 979.4
15 14.07 З 1 50 км 10/5 600 м
[Cb cap Ac und]
+27.0 +19.5 64 +33 +33 очень
душно
1003.4 979.2 +31.5
18 14.07 штиль 0 20 км 8/4 600 м
[Cb calv Ac As]
+19.8 +18.7 93 +22 +22 комфорт 1001.9 977.1
21 14.07 В 4 20 км 10/5 600 м
[Cb calv Ac As]
+26.6 +15.4 50 +29 +29 жарко 997.2 973.0
00 15.07 ЮВ 4
{15}
10 км слаб. ливневой дождь, в посл. час гроза 10/10 750 м
[]
+27.0 +5.0 24 +26 +26 жарко 993.5 969.3 895
03 15.07 Ю 2
{11}
50 км {гроза, ливн. осадки} 10/5 600 м
[Cb calv Ac und]
+19.4 +18.1 92 +22 +23 комфорт 996.6 971.9 +18.5 0.0
06 15.07 ЮЗ 5
{11}
50 км {гроза, ливн. осадки} 10/8 630 м
[Cb calv Ac und]
+19.4 +15.3 77 +21 +21 комфорт 1000.8 976.0
09 15.07 З 7-11
{13}
50 км 10/8 800 м
[Cb calv Ac und]
+19.4 +14.9 75 +21 +21 комфорт 1003.1 978.2
12 15.07 З 5
{12}
50 км 8/6 600 м
[Cb calv Ci fib]
+21.7 +12.7 57 +24 +26 комфорт 1005.1 980.3
15 15.07 З 6-11
{12}
50 км 3/3 600 м
[Cb calv Ci fib]
+21.4 +10.3 49 +23 +23 комфорт 1006.6 981.8 +22.9
18 15.07 штиль 0
{11}
20 км 1/0
[Ci fib]
+12.3 +10.0 86 +12 +12 1009.7 984.0
21 15.07 штиль 0 20 км ясно +9.5 +9.1 97 +9 +9 1010.5 984.5
00 16.07 штиль 0 50 км ясно +6.9 +6.9 100 +6 +6 1011.9 985.6
03 16.07 штиль 0 50 км ясно +16.3 +11.9 75 +16 +21 1012.2 986.8 +5.9

 

Местоположение метеостанции Кувандык (Оренбургская область, Россия): широта 51.47 долгота 57.37 высота над уровнем моря 225 м.

В архиве по умолчанию представлена погода в Кувандыке за последнюю неделю. Архивные данные за месяц целиком и за предыдущие месяцы, начиная с января 2011 года, Вы можете получить, выбрав интересующий диапазон дат из раскрывающегося списка и нажав кнопку "Ввод!".


*Определитесь, кто Вы:
робот инопланетянин человек

Внимание! Время в таблицах - всемирное. Для получения местного времени необходимо прибавить поправку, которая равна 5 ч.

Смотрите также архив погоды в соседних городах и на ближайших метеорологических станциях:

Погода в Беляевке (Оренбургская область, Россия) (66 км)
Погода в Акъяре (Башкирия, Россия) (71 км)
Погода в Зилаире (Башкирия, Россия) (83 км)
Погода в Кос-Истеке (Актюбинская область, Казахстан) (90 км)
Погода в Родниковке (Актюбинская область, Казахстан) (93 км)
Погода в Орске (Оренбургская область, Россия) (96 км)
Погода в Мартуке (Актюбинская область, Казахстан) (99 км)
Погода в Энергетике (Оренбургская область, Россия) (106 км)
Погода в Троицком Т (Оренбургская область, Россия) (118 км)
Погода в Степном (Актюбинская область, Казахстан) (124 км)

Пояснения к столбцам:

Ветер - указаны скорость ветра в м/с - средняя за 10 мин, порывы в срок и между сроками (в фигурных скобках) и направление, откуда дует ветер: С - северный, СВ - северо-восточный, В - восточный, ЮВ - юго-восточный, Ю - южный, ЮЗ - юго-западный, З - западный, СЗ - северо-западный.
Видимость - горизонтальная дальность видимости в метрах или километрах. При видимости от 1 до 10 км при отсутствии осадков обычно наблюдается дымка, при ухудшении видимости до 1 км и менее - туман. В сухую погоду видимость может ухудшаться дымом, пылью или мглою.
Явления - указаны атмосферные явления, наблюдавшиеся в срок или в последний час перед сроком; фигурными скобками обозначены явления, наблюдавшиеся между сроками (за 1-3 часа до срока); квадратными скобками обозначены град или гололедные отложения с указанием их диаметра в мм.
Облачность - указаны через наклонную черту общая и нижняя облачность в баллах и высота нижней границы облаков в метрах; квадратными скобками обозначены формы облаков: Ci - перистые, Cs - перисто-слоистые, Cc - перисто-кучевые, Ac - высококучевые, As - высокослоистые, Sc - слоисто-кучевые, Ns - слоисто-дождевые, Cu - кучевые, Cb - кучево-дождевые. Подробнее классификацию облаков см. в Атласе облаков (PDF).
T - Температура воздуха - температура, измеренная на высоте 2 м над землей.
Td - Температура точки росы - температура, при понижении до которой содержащийся в воздухе водяной пар достигнет насыщения.
f - Относительная влажность воздуха - влажноcть воздуха, измеренная на высоте 2 м над землей.
Te - Эффективная температура - температура, которую ощущает одетый по сезону человек в тени. Характеристика душности погоды. При расчете учитывается влияние влажности воздуха и скорости ветра на теплоощущения человека.
Tes - Эффективная температура на солнце - температура, которую ощущает человек, с поправкой на солнечный нагрев. Характеристика знойности погоды. Зависит от высоты солнца над горизонтом, облачности и скорости ветра. Ночью, в пасмурную погоду, а также при ветре 12 м/с и более поправка равна нулю.
P - Атмосферное давление - приведенное к уровню моря атмосферное давление.
Po - Атмосферное давление - измеренное на уровне метеостанции атмосферное давление.
Tmin - Минимальная температура - минимум температуры воздуха на высоте 2 м над землей.
Tmax - Максимальная температура - максимум температуры воздуха на высоте 2 м над землей.
R - Количество осадков - Количество выпавших осадков за период времени, мм. При наведении курсора мыши на число - период времени, за который выпало указанное количество осадков.
R24 - Количество осадков - Количество выпавших осадков за 24 часа, мм.
S - Снежный покров - Высота снежного покрова, см. При наведении курсора мыши на число - состояние снежного покрова и степень покрытия местности в баллах.